GFSNIL_925_spd_000.txt.gz
Wind_Speed
27 31 35 37 37 33 22 10 1 7 12 13 10 7 8 9 10 14 15 11 9 11
33 37 38 36 32 24 11 9 8 7 5 3 2 5 9 14 16 13 8 4 9 12
34 35 34 34 24 13 9 7 2 2 4 7 8 8 10 8 8 10 13 13 11 11
32 31 30 18 10 10 3 2 4 8 11 15 14 14 10 9 10 11 12 12 15 16
26 26 16 3 5 2 5 6 9 11 10 13 16 14 12 12 12 13 14 16 17 18
23 19 7 7 7 8 9 6 8 9 16 15 14 13 12 13 12 13 14 15 14 15
15 8 6 8 9 14 12 12 14 13 21 17 13 12 13 14 12 11 11 14 17 20
10 10 11 15 16 20 23 21 18 19 22 15 15 16 15 13 10 13 18 23 26 27
14 13 11 17 16 18 22 23 23 19 17 17 16 13 7 9 14 19 23 26 26 28
20 19 18 17 16 16 16 15 15 17 17 14 10 7 11 15 20 24 27 26 25 23
15 16 14 15 16 17 14 16 16 16 13 12 13 16 20 22 24 25 25 25 25 24
12 13 15 16 15 14 15 16 14 11 14 17 21 21 22 20 24 25 25 23 22 22
12 14 14 14 15 16 14 10 14 18 19 20 22 23 22 21 24 23 21 24 22 23
13 12 12 14 14 14 12 16 19 20 20 21 23 23 23 23 22 21 22 21 23 24

GFSNIL_925_spd_003.txt.gz
Wind_Speed
23 28 29 26 29 28 23 15 7 4 4 5 5 4 5 7 7 10 9 9 9 6
22 26 27 30 29 23 15 5 1 2 4 4 5 7 8 8 8 10 7 6 5 3
24 24 25 25 21 13 2 3 7 6 6 9 10 10 13 13 8 4 2 3 6 8
22 21 20 14 10 5 6 6 5 7 9 12 12 10 11 8 7 6 4 5 7 9
15 16 12 7 6 7 7 6 6 9 13 15 16 14 11 7 6 8 9 11 11 12
14 14 9 7 8 11 11 10 11 13 14 16 16 14 12 11 11 11 10 10 9 9
10 10 10 10 11 13 13 14 14 13 16 17 17 15 14 15 12 9 8 10 11 13
7 8 12 12 14 15 15 16 15 14 14 15 16 12 12 9 7 9 12 15 16 16
8 10 13 14 15 15 15 16 16 16 17 17 13 12 7 8 12 15 17 20 22 22
11 12 12 13 16 17 15 15 15 15 14 12 10 10 12 15 17 19 20 21 21 22
11 11 13 15 14 14 14 15 15 13 11 13 14 17 18 18 19 19 20 20 21 21
10 11 12 12 14 14 14 14 12 13 15 16 17 17 19 18 19 20 21 21 19 18
11 11 11 12 14 12 13 12 13 16 15 16 17 19 18 18 19 20 20 19 19 19
11 11 12 13 12 13 14 12 16 17 17 15 17 18 19 19 18 18 21 20 20 19

GFSNIL_925_spd_006.txt.gz
Wind_Speed
15 18 21 23 25 26 24 20 13 9 9 9 8 8 8 7 11 10 8 6 4 3
16 20 20 22 21 21 18 14 11 10 9 5 5 6 6 6 8 11 11 11 9 5
16 16 16 17 18 17 13 11 10 6 5 5 7 9 11 12 9 8 10 8 11 13
15 13 14 15 14 12 12 10 8 8 9 10 13 16 11 11 13 12 11 12 14 15
13 13 14 14 13 12 12 10 10 11 13 17 13 15 14 15 15 14 15 15 16 17
13 15 14 14 15 14 13 13 14 16 15 15 18 19 17 15 15 18 19 18 17 16
15 12 12 11 11 11 14 16 17 19 19 18 18 18 18 17 19 19 17 15 15 15
8 9 12 14 14 15 16 17 17 17 17 17 18 16 15 17 17 17 18 18 19 19
10 12 12 13 15 17 17 16 16 17 17 18 17 14 13 15 18 20 22 23 22 22
11 12 13 15 16 16 17 17 18 17 16 16 17 16 19 18 21 23 24 24 23 23
11 11 14 15 15 16 17 18 18 17 17 19 19 17 17 20 21 21 23 23 23 24
10 12 13 14 15 17 18 18 18 17 19 20 21 18 19 20 21 21 23 23 22 21
11 11 13 14 16 17 18 18 17 18 19 20 20 18 19 19 21 21 21 19 20 20
11 11 13 15 17 19 20 18 14 16 18 18 17 21 18 19 19 20 21 21 21 20

GFSNIL_925_spd_009.txt.gz
Wind_Speed
15 16 17 18 21 21 21 22 20 18 18 19 15 13 11 9 9 10 11 10 13 11
14 16 16 17 18 20 21 22 21 21 19 13 11 9 10 11 12 13 15 13 12 12
16 16 17 18 21 21 20 22 21 19 16 14 12 13 18 21 20 16 15 14 13 14
15 15 17 19 19 18 18 18 17 15 14 14 17 21 18 15 18 17 17 17 18 18
17 18 19 17 16 17 18 18 18 19 19 19 18 17 18 18 19 19 19 20 21 22
18 19 17 15 16 15 15 17 18 19 20 22 22 22 22 22 21 19 21 22 24 23
16 15 13 12 15 16 17 19 20 20 21 21 22 22 22 18 20 24 25 23 23 22
14 15 15 15 16 17 18 19 19 19 20 20 21 17 13 16 21 23 25 26 26 26
15 14 15 15 16 17 18 18 19 20 21 20 21 17 16 17 20 25 26 27 27 27
12 15 15 16 17 17 18 19 20 21 20 20 21 16 19 20 21 25 26 27 27 27
14 16 16 16 17 17 19 20 21 20 19 21 23 19 19 18 24 24 26 26 26 26
16 17 16 17 17 19 20 20 20 18 19 23 24 24 16 21 23 23 25 25 24 24
16 16 15 16 18 19 21 21 18 16 19 20 23 19 20 17 21 23 23 23 23 24
16 14 14 15 19 21 22 20 12 14 18 21 19 20 19 14 18 22 24 24 24 23

GFSNIL_925_spd_015.txt.gz
Wind_Speed
8 7 7 9 12 11 7 9 18 21 16 16 19 20 18 18 20 22 23 22 23 23
8 7 7 10 6 4 9 18 18 18 18 19 22 21 21 22 24 21 17 19 19 18
8 10 9 4 3 8 13 18 19 18 20 20 21 20 21 21 22 21 20 21 21 20
12 3 1 5 6 9 14 17 13 14 15 18 17 19 20 20 20 18 15 16 18 21
15 10 11 6 9 10 10 10 9 12 15 15 18 20 21 20 13 17 20 22 27 27
8 13 15 13 6 2 5 7 10 12 11 13 17 20 18 14 17 20 22 25 26 28
19 17 10 3 7 7 10 11 10 8 12 14 16 14 12 16 17 19 22 25 26 26
21 9 11 12 8 19 14 10 5 12 14 13 9 11 13 16 20 24 25 23 24 25
7 9 9 10 12 22 8 5 12 14 14 5 8 10 14 22 25 24 21 23 27 28
18 15 15 14 15 9 5 10 14 12 4 9 10 10 20 21 20 22 20 22 24 28
18 14 13 6 18 3 10 15 8 8 11 10 16 21 18 16 18 18 20 20 25 26
16 13 12 17 4 7 14 6 7 10 11 16 18 16 14 19 19 18 19 20 22 24
17 14 15 11 9 10 7 2 6 9 15 16 15 14 18 17 15 19 20 21 22 22
15 14 13 12 11 8 4 6 7 13 12 15 15 21 17 16 20 20 19 21 23 23

GFSNIL_925_spd_021.txt.gz
Wind_Speed
6 7 10 13 15 17 16 13 6 8 9 9 9 10 8 9 10 11 11 13 14 14
8 11 13 14 17 17 14 10 8 6 6 10 9 10 9 8 10 10 11 10 8 9
12 13 16 19 18 17 12 10 8 7 18 15 12 8 8 8 9 13 10 9 10 14
14 17 19 18 16 11 11 13 13 14 19 13 12 10 8 11 13 11 11 12 13 17
13 17 17 14 12 14 19 17 12 11 13 19 13 10 11 12 10 11 13 14 17 21
16 16 14 15 18 21 22 18 18 18 18 14 15 13 14 12 11 11 14 19 21 20
12 14 15 15 17 21 20 19 20 17 13 14 12 19 12 11 12 15 21 21 20 20
10 13 15 19 20 21 18 17 15 10 9 12 17 8 10 12 18 21 22 22 23 21
11 15 17 18 17 16 15 11 7 8 9 9 5 8 11 16 17 17 21 24 23 22
13 16 18 17 16 13 14 5 4 7 3 3 7 9 12 14 17 19 19 20 23 23
14 18 19 17 15 11 2 8 10 2 2 5 8 10 13 14 16 19 22 22 20 22
17 17 18 16 13 10 9 10 4 2 3 7 10 12 13 14 18 21 21 19 22 19
13 16 16 14 11 10 9 6 4 1 6 7 9 12 12 15 17 19 18 22 21 18
12 15 14 11 9 7 5 5 1 5 5 5 8 12 12 15 16 18 19 19 19 20

GFSNIL_925_spd_024.txt.gz
Wind_Speed
6 8 9 13 15 17 19 18 12 8 8 7 10 24 13 13 12 12 13 14 14 14
8 10 14 16 19 21 20 15 11 12 12 14 21 13 16 14 12 13 13 14 11 12
9 10 13 16 17 19 17 15 16 19 17 18 19 15 12 14 13 13 13 11 13 14
9 12 14 14 14 14 15 18 24 21 16 14 8 14 15 13 17 15 13 13 13 17
11 10 9 10 12 14 19 23 22 17 12 15 19 14 15 18 16 14 14 14 17 23
6 8 10 12 17 22 22 20 14 13 18 15 9 10 11 14 11 11 14 19 23 23
6 9 13 16 21 22 21 19 17 17 16 9 3 9 11 7 11 16 20 22 22 25
7 12 17 21 23 21 20 17 15 7 3 5 10 7 6 10 16 19 21 23 25 23
11 16 19 20 21 21 17 14 14 8 7 5 2 4 8 13 16 18 22 24 25 24
14 17 19 19 19 18 15 7 5 8 3 1 4 8 11 14 16 19 22 22 21 19
15 17 17 18 18 16 10 8 11 3 2 2 6 9 11 12 16 20 21 20 18 20
15 16 18 19 18 13 11 10 5 4 2 5 7 10 12 13 16 18 20 18 19 18
15 16 17 19 17 14 13 8 6 2 4 6 8 10 10 11 16 18 19 20 18 18
15 15 17 15 13 10 6 6 5 3 5 6 7 9 10 11 14 17 18 18 19 20

GFSNIL_925_spd_027.txt.gz
Wind_Speed
3 5 7 11 14 15 18 20 20 16 14 15 15 10 12 9 10 9 8 9 10 10
5 6 7 9 12 14 15 15 13 14 17 17 12 13 13 10 11 12 12 12 11 10
2 3 7 10 12 12 14 16 19 20 16 14 13 14 14 11 13 15 13 13 11 12
3 7 9 9 10 12 15 19 21 21 18 16 15 14 15 12 11 14 14 11 11 13
7 7 7 9 10 15 19 22 21 18 12 9 13 14 12 9 10 11 10 11 13 17
7 6 7 10 14 18 19 18 16 11 12 13 13 7 5 9 10 6 8 13 16 19
7 7 9 13 17 19 20 17 14 13 13 6 2 4 8 6 4 8 12 14 16 18
8 8 12 16 20 20 17 13 13 10 6 5 4 2 1 4 8 12 15 16 17 18
8 10 15 19 18 16 14 12 8 6 4 3 1 2 6 9 11 13 14 17 18 17
8 13 17 15 14 14 12 8 5 8 4 2 1 6 10 13 10 12 15 15 16 16
11 14 14 13 14 14 10 8 8 6 4 2 3 8 11 13 10 12 14 15 15 16
13 13 11 12 16 14 10 8 7 5 5 3 5 8 10 11 11 13 15 14 15 16
15 13 11 14 13 13 9 8 6 6 5 6 7 8 10 10 11 14 16 15 15 14
16 14 11 12 11 11 7 5 7 6 6 7 8 8 9 10 11 12 15 16 16 15

GFSNIL_925_spd_030.txt.gz
Wind_Speed
3 1 3 5 8 10 13 15 15 15 15 16 16 17 17 18 17 16 13 13 14 15
0 1 2 4 7 9 10 12 14 16 18 19 19 19 18 20 19 17 14 15 15 15
3 1 2 4 7 8 11 14 18 20 21 21 20 19 19 20 19 15 15 15 16 17
3 1 3 5 7 9 13 17 20 20 20 19 18 17 18 19 15 13 14 15 17 17
2 4 5 6 8 11 16 18 19 18 17 16 15 16 16 15 9 11 14 15 16 20
5 7 7 8 10 14 17 17 16 15 15 15 15 14 9 7 9 11 11 13 18 21
8 8 8 9 12 15 16 15 15 14 12 9 9 6 6 8 7 11 14 16 18 18
8 8 8 10 14 15 14 14 15 12 9 8 7 5 5 6 11 14 16 16 16 17
8 8 9 12 14 13 14 13 12 8 7 6 5 7 5 8 13 15 15 15 16 16
7 9 11 13 13 13 13 12 11 10 9 8 6 7 7 12 12 13 13 14 16 16
9 11 12 12 13 14 13 12 12 10 9 9 7 7 9 12 10 12 13 14 15 16
11 13 13 13 13 14 11 13 12 10 10 10 8 9 9 10 11 11 14 13 14 14
12 14 15 14 13 12 11 12 11 10 10 10 7 9 8 8 9 12 13 14 14 12
14 15 15 14 14 12 12 10 9 9 9 9 9 8 10 9 8 11 13 14 15 14

GFSNIL_925_spd_033.txt.gz
Wind_Speed
6 4 2 3 5 6 8 10 12 13 15 17 19 20 21 19 18 21 17 18 15 17
5 3 4 4 4 6 7 9 11 14 17 19 20 21 22 22 17 21 20 17 15 15
4 6 5 5 5 6 7 10 13 15 17 18 19 19 21 19 19 19 18 14 12 14
6 7 7 6 5 6 8 12 14 16 17 17 18 17 14 17 18 19 13 12 13 15
9 8 8 7 7 8 11 13 15 16 16 17 16 17 17 17 13 10 12 13 14 16
10 9 9 9 9 10 13 15 16 15 16 16 16 14 12 9 7 10 10 12 15 19
8 9 10 10 10 12 14 15 15 15 15 13 14 10 9 8 8 9 13 15 17 18
9 9 10 10 11 13 14 14 15 15 12 11 10 8 4 8 11 14 17 17 16 16
9 10 10 11 12 14 14 15 16 14 11 11 10 8 9 8 11 15 16 16 15 16
9 9 10 12 14 14 15 15 16 14 12 12 9 10 9 9 11 15 13 14 15 16
9 10 11 13 15 15 15 16 16 13 11 11 9 12 10 11 12 13 12 13 14 15
10 12 13 15 16 16 16 16 15 14 12 11 10 13 12 11 10 11 12 13 14 12
11 12 15 16 17 16 16 17 15 13 11 11 8 9 12 10 9 10 12 12 12 12
12 14 15 16 16 15 16 15 13 11 10 11 9 12 11 11 8 10 11 12 12 11

GFSNIL_925_spd_036.txt.gz
Wind_Speed
12 9 7 7 3 3 5 5 8 9 8 12 15 17 19 20 20 18 15 16 14 15
11 9 8 4 5 3 4 5 5 8 11 14 16 17 19 21 21 16 15 14 16 14
11 8 6 5 5 5 5 5 8 9 12 14 15 16 18 13 14 18 17 16 11 10
10 12 9 10 8 6 6 7 8 11 13 14 16 13 17 18 18 13 11 8 11 10
12 10 14 7 8 7 6 8 9 11 13 14 13 13 14 15 14 9 9 10 10 12
14 11 9 10 6 7 7 8 10 12 13 15 10 11 11 10 11 10 9 10 12 13
5 16 4 6 6 6 8 9 12 12 14 12 8 10 11 8 8 7 11 13 14 14
11 5 7 6 7 8 9 11 13 13 16 10 8 10 6 6 6 8 13 17 16 13
12 1 6 6 7 10 12 13 12 13 16 10 8 11 9 9 8 8 13 16 13 13
5 8 6 6 9 11 13 12 14 16 16 12 11 12 13 11 8 9 11 13 12 13
6 6 7 8 12 13 15 13 13 15 16 13 12 13 13 11 8 7 11 13 12 13
4 7 12 12 12 13 14 14 13 15 16 12 13 13 12 12 6 7 10 12 13 13
8 11 13 16 15 14 14 14 15 12 8 7 7 12 13 11 7 8 11 11 11 14
14 14 15 18 13 13 15 17 17 15 12 11 10 11 15 11 11 11 9 11 11 10

GFSNIL_925_spd_039.txt.gz
Wind_Speed
18 20 19 18 15 11 7 4 3 3 5 7 10 12 15 18 17 17 11 5 8 10
17 16 15 11 7 7 5 5 4 1 5 9 11 13 15 13 8 11 13 13 12 9
18 15 9 9 7 4 5 5 4 5 5 8 11 13 8 9 13 15 11 8 6 4
16 10 11 7 6 6 7 7 5 6 8 10 11 7 9 12 14 11 6 5 6 7
15 13 6 7 7 8 13 9 8 8 8 10 11 11 9 9 8 8 8 7 7 9
14 9 8 4 13 13 11 8 7 7 11 11 10 6 6 5 5 5 5 7 9 7
11 9 2 4 3 12 6 5 7 11 13 15 15 11 9 7 6 5 5 7 10 11
9 8 1 10 12 6 10 11 12 14 15 15 15 12 12 11 12 10 11 10 11 8
5 2 3 4 12 8 9 12 13 13 14 17 15 15 14 13 13 10 8 10 8 11
13 3 10 7 6 7 14 18 16 19 15 14 16 16 16 15 13 9 8 8 10 8
10 9 7 11 14 16 18 17 19 14 15 15 17 16 16 15 14 10 8 9 9 9
13 14 15 14 15 19 22 23 18 17 17 18 14 14 13 14 12 11 10 11 12 10
11 9 10 17 17 21 15 16 16 18 16 14 14 12 14 16 15 15 13 11 9 10
6 12 13 17 13 15 18 20 22 22 20 16 17 17 16 17 19 17 14 12 13 12

GFSNIL_925_spd_042.txt.gz
Wind_Speed
31 30 27 28 24 21 18 12 9 3 2 2 6 8 10 11 10 7 8 9 9 10
25 23 22 21 18 18 14 13 6 4 6 13 11 12 11 9 5 9 13 12 9 8
24 24 21 17 16 12 11 9 2 8 13 13 9 12 9 7 10 13 12 8 3 2
27 24 19 16 12 12 6 2 6 10 10 9 9 10 9 8 10 10 6 5 6 5
28 22 18 13 13 6 5 7 9 11 9 6 11 12 11 10 8 8 8 6 6 7
23 21 17 17 13 5 7 12 10 7 6 13 9 13 14 13 10 10 10 8 7 5
25 22 20 15 11 7 8 11 7 9 10 10 12 13 15 14 14 13 13 11 10 10
21 17 13 10 9 6 4 6 7 8 14 18 14 15 17 19 17 16 15 13 10 10
19 14 11 9 7 5 1 3 9 16 20 17 17 17 19 21 19 17 17 14 12 10
17 17 12 8 7 7 6 15 17 20 17 24 22 20 18 21 19 18 17 14 11 11
18 16 13 9 1 9 14 18 17 21 24 20 21 18 17 20 19 18 15 13 12 13
20 14 3 10 16 16 16 19 22 17 17 19 21 21 17 18 20 19 19 18 14 16
6 10 11 11 13 15 16 14 14 17 20 21 18 18 17 17 19 23 22 18 16 16
7 8 9 10 12 15 17 17 19 21 20 21 22 22 19 20 23 25 24 21 18 16

GFSNIL_925_spd_045.txt.gz
Wind_Speed
29 29 28 26 29 30 26 23 20 14 11 4 5 6 11 18 11 5 6 8 11 12
30 28 28 25 25 23 23 19 10 6 6 1 6 16 14 11 7 5 7 8 7 8
29 27 22 21 26 27 22 15 16 11 5 13 12 12 10 10 8 7 8 7 5 4
30 29 28 30 32 31 24 22 15 16 14 12 13 9 9 10 10 9 8 7 6 8
31 31 34 32 28 26 24 23 17 15 14 13 8 9 12 12 11 11 10 9 10 10
32 33 31 28 25 24 17 11 12 10 9 5 8 10 11 13 14 14 14 13 13 13
28 26 23 23 25 16 12 9 10 8 3 9 12 13 14 15 17 18 17 16 15 15
24 21 18 18 12 8 11 9 5 3 11 17 20 17 15 15 18 21 20 17 15 15
19 19 17 16 17 14 12 6 7 13 17 23 16 16 20 19 20 22 22 20 17 19
22 23 20 16 11 7 8 13 15 18 17 14 20 21 19 19 20 23 23 22 19 18
25 22 13 7 11 10 12 13 14 18 19 20 17 19 21 19 21 23 22 20 19 19
12 7 6 5 8 11 13 15 15 17 15 17 19 19 20 20 20 23 24 23 22 21
10 11 6 6 8 12 13 14 15 19 18 19 21 19 19 20 21 24 23 26 24 22
4 4 6 8 11 13 15 17 19 21 21 21 21 23 21 21 23 24 24 27 28 25

GFSNIL_925_spd_048.txt.gz
Wind_Speed
38 32 29 26 28 30 30 26 24 23 20 16 15 8 6 11 12 8 6 6 8 11
36 31 31 27 29 31 28 28 26 27 24 18 12 10 10 8 7 9 9 9 8 9
37 32 31 29 28 30 31 33 33 27 20 13 9 6 5 7 10 13 12 10 10 10
33 31 30 28 29 31 34 31 25 19 16 9 9 6 5 9 13 16 15 14 12 12
26 25 24 25 25 26 28 25 19 16 10 8 6 6 8 12 19 20 18 16 14 15
22 21 22 22 22 23 21 17 12 7 5 7 9 8 18 21 20 19 18 18 18 17
20 22 20 20 20 18 16 10 9 9 10 7 13 16 18 20 19 20 20 21 21 20
17 15 16 15 17 12 11 10 9 9 10 13 14 18 23 18 19 22 23 23 24 23
18 19 20 18 19 20 17 6 7 15 17 18 19 21 13 18 21 24 27 27 26 25
23 25 26 22 14 5 1 11 15 14 16 18 17 19 20 17 21 24 26 27 28 25
29 21 11 7 5 5 7 9 12 14 16 20 20 16 17 19 22 24 25 26 26 25
12 9 8 10 9 7 9 12 14 16 17 17 21 20 21 21 21 23 25 24 25 25
9 11 9 5 5 8 11 14 16 18 20 21 25 24 23 21 23 25 27 26 25 25
6 5 5 7 10 12 14 16 19 22 24 26 26 27 25 24 23 25 26 26 26 26

GFSNIL_925_spd_051.txt.gz
Wind_Speed
31 27 29 27 24 27 30 30 31 30 30 27 28 24 13 8 7 6 5 8 7 6
28 27 24 27 26 27 30 31 29 30 32 29 23 16 7 8 5 5 7 9 8 8
24 25 23 26 28 28 27 27 30 28 25 18 14 7 5 5 3 5 12 12 11 10
24 25 25 24 24 23 25 30 26 27 23 19 11 6 6 1 9 14 14 15 15 15
22 21 20 20 22 24 25 28 30 25 21 15 14 13 8 19 14 15 16 17 16 17
15 12 13 17 17 19 24 26 25 22 16 11 10 13 15 12 16 18 19 20 19 19
8 8 10 11 14 15 17 22 21 16 15 12 14 13 11 15 18 20 21 23 23 21
10 11 12 15 17 18 20 15 12 10 10 15 14 15 19 18 20 18 19 23 25 24
17 17 18 19 18 17 18 14 9 9 14 14 19 21 19 22 18 19 21 21 21 24
23 26 27 25 19 11 6 4 10 12 16 19 19 19 19 22 22 19 19 21 21 22
29 24 17 11 7 2 2 6 10 11 13 15 19 19 17 19 22 21 22 23 24 23
16 13 10 8 6 5 4 6 8 11 14 15 18 20 21 23 23 22 24 24 25 25
10 9 8 4 2 4 7 9 11 14 16 18 22 23 24 24 25 23 27 27 25 28
11 9 5 4 5 7 9 12 15 17 19 21 23 25 26 26 26 25 28 25 23 21

GFSNIL_925_spd_054.txt.gz
Wind_Speed
24 23 23 20 18 19 20 23 19 24 19 21 22 22 13 10 11 10 11 11 12 10
21 21 19 17 17 17 20 20 23 25 24 22 18 18 20 14 10 9 9 10 13 11
18 19 18 17 18 17 23 23 25 24 24 19 19 19 16 11 10 12 16 15 14 13
16 16 16 21 21 20 22 24 23 26 25 24 22 16 11 12 12 18 16 14 14 15
9 9 12 16 16 17 19 19 18 23 26 24 22 14 14 13 15 15 15 16 17 17
7 7 7 8 10 11 14 16 20 21 21 21 16 11 13 14 15 16 18 18 18 18
8 7 7 8 9 11 12 14 15 18 19 16 13 13 14 13 17 19 19 19 20 21
12 12 12 12 11 11 11 11 13 14 10 9 13 12 13 15 22 19 20 21 21 23
16 15 15 16 16 17 14 14 10 9 8 11 11 14 18 21 18 20 20 23 25 26
18 20 20 19 17 14 12 6 4 7 9 14 18 19 17 19 20 22 23 25 26 27
20 19 16 15 13 9 6 5 7 8 8 9 11 14 17 17 19 23 26 27 28 29
16 14 11 8 5 3 2 2 3 5 7 10 12 14 18 19 20 24 27 28 30 31
10 10 7 6 5 3 1 2 4 6 9 11 14 15 17 20 20 24 27 29 30 31
10 9 7 6 5 3 3 5 7 8 11 13 13 15 18 20 20 22 26 28 30 30

GFSNIL_925_spd_057.txt.gz
Wind_Speed
25 26 23 21 20 19 18 20 21 25 26 21 19 25 17 15 12 12 11 7 6 7
32 26 22 20 19 18 17 16 20 24 23 24 25 22 18 19 17 11 6 5 8 13
24 22 20 18 18 17 17 17 22 25 27 25 24 18 21 17 12 9 11 10 11 14
17 16 17 18 19 19 17 18 21 22 25 24 23 20 17 14 10 8 9 11 15 18
16 15 14 14 16 19 16 16 17 18 19 23 22 19 17 14 10 9 14 16 18 19
13 11 10 12 11 11 11 10 12 17 17 18 17 13 10 9 8 12 15 17 18 20
11 11 10 9 9 9 9 13 13 10 15 17 16 10 11 10 11 12 16 20 21 21
15 13 14 14 13 12 13 10 13 14 13 12 12 10 11 11 10 15 18 18 22 23
17 16 16 16 16 16 16 14 14 14 12 9 6 8 9 12 14 17 18 20 22 24
18 18 17 16 15 14 13 12 9 6 4 2 7 9 10 11 13 16 20 23 25 27
18 18 16 14 12 10 8 6 4 3 4 5 5 4 7 12 14 18 21 24 26 28
16 15 13 10 7 5 5 5 3 1 1 4 5 8 11 12 15 18 22 24 26 29
13 11 9 7 7 5 4 3 2 2 3 4 6 7 12 15 15 18 21 23 25 28
12 10 9 8 7 4 3 2 2 3 5 6 6 8 15 15 14 17 22 25 28 29

GFSNIL_925_spd_060.txt.gz
Wind_Speed
27 33 26 25 29 23 24 25 24 22 25 26 26 25 24 22 19 15 12 10 8 9
32 30 30 31 26 24 19 22 23 26 26 25 24 23 20 20 20 18 18 14 11 10
36 35 29 25 20 17 17 16 18 19 19 21 21 19 20 21 19 16 13 12 9 10
28 29 24 12 11 13 16 17 15 17 18 18 20 21 21 16 15 14 12 10 9 12
25 19 9 12 12 15 16 14 14 15 17 20 22 21 17 16 14 11 11 10 12 15
18 17 16 15 15 15 14 10 10 13 17 19 18 17 15 13 13 10 9 10 13 17
21 19 16 13 11 10 9 11 12 13 15 15 16 15 14 13 11 8 8 11 16 23
19 16 16 15 14 14 15 15 14 15 14 14 14 12 13 9 8 8 11 16 17 20
20 19 19 17 18 17 18 17 16 15 17 17 14 9 6 6 7 10 13 16 17 20
22 22 22 21 21 21 18 17 16 16 11 7 4 3 2 5 7 9 13 15 19 21
22 22 21 20 19 17 16 13 11 8 6 5 5 6 5 3 5 8 11 14 18 21
22 21 19 18 17 14 12 12 11 9 8 12 11 5 0 3 6 10 13 14 15 18
21 19 17 16 15 13 13 12 10 10 7 7 7 4 8 11 11 10 14 21 23 23
18 18 17 16 15 14 11 13 10 7 6 5 3 5 9 10 11 13 19 19 21 23

GFSNIL_925_spd_063.txt.gz
Wind_Speed
40 37 40 37 36 39 38 37 33 31 22 20 20 21 23 22 21 18 15 17 18 18
48 44 43 41 40 30 27 29 29 24 22 22 22 22 21 19 17 14 18 17 15 14
40 46 40 31 20 21 17 26 27 24 24 25 23 19 19 17 19 21 17 13 12 12
41 41 26 22 17 22 24 27 29 24 25 22 19 17 18 21 21 18 15 13 11 10
26 27 17 2 27 28 26 23 22 22 19 16 17 19 21 22 19 16 12 9 8 8
24 27 21 29 30 29 23 20 18 16 15 17 19 19 17 16 16 12 11 8 7 7
29 28 26 26 24 21 18 16 14 13 14 16 18 18 16 15 14 12 9 7 7 10
28 27 24 21 19 17 15 14 14 16 16 16 17 17 16 16 13 9 7 7 10 11
24 22 21 20 19 18 18 17 17 18 19 20 18 17 16 11 8 6 5 7 8 12
26 24 22 22 22 21 22 21 20 20 20 19 16 11 10 9 6 3 3 5 6 9
26 27 26 24 25 24 23 22 22 20 17 14 12 11 10 7 5 3 2 6 9 11
29 30 31 30 27 24 21 20 18 17 17 16 17 13 10 7 4 3 5 6 9 10
30 29 27 27 25 21 19 19 15 19 22 19 16 8 5 2 1 2 6 9 11 12
29 28 25 23 23 22 22 27 25 24 20 16 11 6 1 2 3 6 9 12 15 17

GFSNIL_925_spd_066.txt.gz
Wind_Speed
38 36 39 39 40 40 40 42 40 39 39 38 35 28 25 25 26 27 26 24 19 23
41 40 35 34 37 40 39 38 35 35 36 31 22 23 22 23 25 24 21 20 22 20
37 34 34 32 32 31 30 26 21 29 29 30 27 23 23 23 23 23 23 21 20 18
36 34 32 32 21 21 15 23 30 32 31 28 29 25 24 23 23 24 21 20 18 15
28 26 23 21 23 28 28 31 29 28 27 30 29 25 25 23 24 23 22 18 16 12
28 25 23 26 30 32 31 28 29 29 31 28 25 24 23 23 23 20 18 15 13 9
30 37 42 32 33 30 29 29 27 25 25 24 22 22 22 21 20 18 16 13 8 5
26 34 32 33 32 31 29 27 26 24 21 20 21 22 23 22 21 18 13 10 6 2
28 31 33 34 32 30 28 26 24 21 21 22 23 23 21 20 18 13 11 9 7 4
31 31 32 32 31 29 26 25 25 25 26 26 23 20 20 17 16 14 10 8 6 5
29 28 30 30 30 30 29 30 30 29 26 25 24 21 19 18 15 13 10 6 5 5
31 31 30 30 33 33 32 30 30 28 26 23 22 20 19 18 15 11 7 3 1 2
31 30 29 32 32 30 31 30 29 26 24 23 23 19 18 14 11 8 4 3 1 2
30 31 32 31 29 29 27 27 28 27 25 24 22 17 12 9 7 5 5 3 0 3

GFSNIL_925_spd_069.txt.gz
Wind_Speed
39 36 37 37 38 38 39 41 40 38 40 41 40 37 32 31 29 25 25 27 28 25
37 37 32 32 35 37 37 35 36 36 37 38 40 35 37 33 24 25 26 27 23 20
30 30 31 33 31 30 30 33 37 40 37 37 35 36 32 29 27 25 23 22 22 19
29 32 34 42 38 34 31 30 29 36 29 40 33 30 26 27 26 22 21 20 18 18
33 36 38 40 34 31 29 25 22 30 33 34 31 28 31 29 27 24 22 20 20 17
47 54 48 38 38 38 35 34 30 34 35 28 29 30 32 28 26 23 22 21 19 18
44 36 35 35 32 42 40 34 32 33 33 32 31 32 29 26 24 21 21 20 17 15
38 36 39 38 38 33 33 32 29 28 27 28 29 28 27 24 22 22 19 18 15 13
36 39 37 39 37 33 31 28 28 29 27 27 24 22 22 23 23 22 22 20 15 13
30 30 32 31 31 30 29 30 29 28 25 22 20 20 20 22 23 23 20 17 16 12
25 26 27 28 27 27 28 29 26 22 21 21 21 21 22 22 21 19 16 14 11 9
26 26 26 24 24 26 26 22 21 22 23 24 24 22 21 21 20 16 12 9 6 5
27 28 26 26 25 24 23 24 25 25 24 26 25 21 19 17 17 14 11 7 5 3
26 27 26 25 25 25 25 26 27 26 22 23 22 19 16 14 13 11 10 8 7 5

GFSNIL_925_spd_072.txt.gz
Wind_Speed
35 35 35 35 35 35 35 35 36 36 34 31 30 29 31 32 31 28 28 30 32 32
36 37 36 36 35 37 39 41 39 36 34 31 29 27 26 27 24 30 28 27 29 28
38 39 40 38 38 38 37 34 33 33 32 32 31 28 26 25 31 37 35 27 24 22
38 39 41 41 40 38 36 34 32 32 31 34 37 35 27 26 30 33 31 25 21 18
44 44 48 51 48 45 42 37 35 35 39 36 33 35 25 24 28 29 30 27 22 21
41 45 40 36 35 31 35 39 34 37 35 32 30 23 24 26 30 32 32 28 25 23
35 45 34 35 31 31 36 35 32 39 36 33 31 26 22 27 30 30 28 23 22 20
40 38 31 30 29 32 35 39 37 38 37 30 29 28 30 30 31 27 23 18 18 17
33 33 33 31 30 32 37 38 38 38 37 30 30 29 29 29 28 25 22 24 20 19
32 32 28 27 29 31 33 36 36 33 28 28 27 24 23 24 23 24 25 23 22 17
28 26 27 28 28 29 29 29 29 29 28 27 22 21 23 23 25 24 23 21 19 15
29 26 26 25 23 23 23 24 25 25 26 26 25 25 24 26 26 25 21 18 14 12
26 25 24 23 23 22 23 24 25 24 23 25 28 24 24 25 26 24 20 16 12 11
21 22 22 22 22 24 26 26 26 26 25 28 27 23 21 19 20 20 19 15 11 8

GFSNIL_925_spd_075.txt.gz
Wind_Speed
27 28 27 29 29 33 31 34 36 33 29 27 27 25 22 21 21 23 23 23 23 23
34 34 30 31 34 34 35 36 34 31 30 31 30 30 26 25 24 23 23 23 22 22
34 37 36 34 39 38 37 37 32 33 33 30 33 32 27 27 25 24 25 24 22 25
36 38 40 41 44 44 39 36 39 39 35 34 33 30 27 28 28 29 27 28 26 29
33 35 40 47 50 43 42 41 38 32 33 33 34 30 38 40 37 35 29 28 25 26
36 34 37 35 31 31 31 32 28 31 34 36 34 36 37 33 32 34 26 24 28 27
35 39 37 34 30 30 32 31 32 34 38 32 30 33 30 27 26 26 26 24 25 28
37 34 32 33 33 34 34 33 32 35 38 37 36 35 30 26 28 27 26 24 24 25
32 32 34 34 33 33 35 35 34 34 36 38 35 36 31 31 29 29 27 25 25 22
31 31 32 32 31 32 32 29 32 32 31 36 36 34 32 29 28 27 27 28 30 27
29 29 27 27 29 28 28 30 32 34 35 36 33 29 26 25 25 26 27 29 28 27
23 22 21 22 23 24 25 25 28 30 29 27 25 22 24 29 28 27 28 26 23 21
21 24 23 21 21 23 23 23 21 19 19 21 20 27 32 29 30 29 28 23 19 16
19 18 19 19 20 19 18 17 17 17 16 18 25 26 25 27 32 33 27 23 19 15

GFSNIL_925_spd_078.txt.gz
Wind_Speed
28 28 30 34 37 37 34 36 40 42 42 42 32 30 28 27 24 19 18 20 20 21
33 33 32 32 35 36 37 36 37 39 39 36 33 32 26 24 22 21 22 22 22 22
34 36 35 34 36 35 36 37 37 36 37 36 31 30 29 28 26 26 25 22 20 20
36 37 36 35 36 37 35 37 37 37 35 34 33 33 32 31 29 28 24 22 20 24
35 36 38 39 39 37 38 37 38 37 37 37 37 35 34 33 30 30 24 28 28 29
34 36 38 39 38 37 37 38 38 38 39 39 38 37 35 34 36 32 30 28 32 36
36 38 38 37 36 36 36 36 37 37 37 36 36 34 32 30 28 25 25 28 29 32
35 34 33 33 34 35 34 35 36 35 36 35 34 34 33 30 27 24 25 29 29 31
33 33 35 34 33 33 34 35 34 35 34 33 32 34 40 36 28 29 31 33 30 31
32 33 33 31 31 31 32 30 32 31 32 32 31 31 37 39 27 27 33 33 31 27
30 29 28 29 30 30 29 29 28 29 30 29 27 31 34 33 32 34 30 30 29 30
29 28 28 28 27 26 25 24 26 24 27 31 34 37 35 32 32 27 23 23 25 27
25 26 26 25 22 18 17 21 26 26 26 29 30 27 24 31 31 27 25 23 23 25
22 19 17 17 20 25 24 21 17 15 12 12 13 17 28 33 26 27 26 25 24 23

GFSNIL_925_spd_081.txt.gz
Wind_Speed
29 32 35 37 35 33 33 35 40 42 39 34 33 25 24 24 23 21 22 22 23 23
31 31 33 37 39 37 34 34 37 43 39 40 42 38 29 25 27 22 25 26 22 23
33 33 31 33 39 40 41 39 39 39 39 38 40 35 35 33 26 26 26 25 25 27
34 34 32 32 35 38 38 39 40 38 38 38 37 37 37 36 31 30 29 30 30 29
31 33 36 36 34 34 35 37 40 37 37 38 38 38 38 36 34 33 32 32 29 30
32 34 35 36 35 35 35 35 36 37 37 39 39 38 38 37 35 34 34 34 31 31
34 35 34 34 35 36 36 36 36 38 38 38 37 38 38 37 37 37 37 35 31 31
34 34 34 34 36 36 38 39 39 37 38 39 38 39 39 38 39 38 35 32 34 32
32 33 34 34 35 35 37 38 37 39 39 39 39 40 42 41 35 35 33 31 33 35
33 34 35 35 35 36 36 35 38 37 37 37 38 39 40 42 41 31 29 32 31 35
33 34 33 34 36 36 35 36 36 36 35 35 35 37 40 41 40 40 33 33 35 36
33 33 33 33 34 33 32 32 34 31 31 31 29 30 34 31 33 34 35 32 30 29
29 31 31 31 30 29 28 27 25 25 24 26 25 26 25 27 30 30 23 17 15 16
25 26 28 27 25 25 21 20 17 15 11 13 14 16 16 20 23 23 18 16 16 17

GFSNIL_925_spd_084.txt.gz
Wind_Speed
35 35 35 37 34 35 32 33 33 37 39 38 37 35 29 26 27 26 25 23 26 26
32 35 36 35 35 35 33 31 33 40 39 43 40 37 32 32 27 32 30 25 32 33
29 35 36 35 37 35 34 34 34 39 42 41 42 43 41 33 33 33 29 30 32 33
33 33 36 36 39 39 37 38 35 39 41 41 40 39 37 35 32 33 34 33 32 34
33 35 33 36 36 39 42 41 41 39 40 40 40 40 39 38 37 38 35 34 33 35
36 37 37 37 36 38 41 42 43 43 42 43 43 42 42 40 40 39 39 38 36 36
36 37 37 36 36 34 39 41 42 44 45 44 42 42 43 42 40 39 38 39 39 39
33 34 33 34 38 38 37 38 39 39 41 42 40 42 41 41 40 40 41 40 41 40
30 33 36 35 35 37 39 39 39 39 39 40 43 44 45 44 40 40 39 39 40 42
31 33 35 35 35 37 38 37 40 41 41 42 43 44 47 48 45 38 37 38 38 37
31 33 31 33 37 37 37 38 37 38 39 39 42 43 44 45 46 42 40 38 34 34
29 29 29 31 35 35 33 33 36 36 36 37 37 38 40 41 43 42 35 33 32 30
28 29 30 33 29 30 31 32 30 31 33 36 36 37 38 37 40 33 28 22 18 14
30 28 30 29 31 29 30 30 30 29 22 16 19 22 24 25 28 30 21 16 14 14

GFSNIL_925_spd_087.txt.gz
Wind_Speed
30 30 30 34 30 31 29 33 32 34 38 40 38 35 35 35 35 33 29 30 32 24
33 31 31 33 31 32 28 30 32 35 35 36 37 38 33 36 33 33 30 28 29 27
32 34 33 33 33 33 34 31 32 35 36 37 38 38 40 37 34 33 33 36 34 34
29 34 34 33 35 36 37 36 35 41 41 35 38 39 38 37 37 37 38 39 37 38
31 32 34 35 36 36 37 38 38 39 42 41 40 41 42 39 36 37 35 37 38 40
34 33 34 36 35 37 39 40 41 40 42 42 42 42 43 41 41 39 38 37 39 40
38 38 36 33 37 36 38 39 42 44 42 42 44 44 44 43 43 43 42 40 42 41
38 38 38 39 36 36 37 40 40 40 42 43 42 45 45 44 43 42 42 41 43 44
36 38 39 39 38 39 39 38 39 42 42 43 44 46 47 46 42 42 41 42 42 44
32 37 38 36 37 40 40 38 38 38 40 43 44 47 50 51 46 40 42 44 41 40
33 32 30 34 37 35 35 38 39 38 39 38 42 44 48 49 49 46 44 41 42 42
18 29 29 32 37 38 35 32 36 37 37 40 42 40 44 46 49 46 44 41 44 44
26 15 28 34 33 33 35 38 34 33 35 37 39 40 44 45 45 37 36 36 33 33
24 20 17 13 26 30 30 28 29 28 26 26 28 28 33 38 40 40 36 28 18 15

GFSNIL_925_spd_090.txt.gz
Wind_Speed
28 30 30 32 30 29 29 27 33 37 34 31 34 36 36 37 36 33 32 32 34 31
30 29 30 32 31 33 29 28 35 33 35 35 31 34 39 35 34 33 35 36 30 30
29 33 30 30 35 33 34 34 34 37 37 35 37 36 34 35 34 36 37 37 34 30
30 31 33 33 35 37 37 37 36 39 39 38 37 40 39 38 37 38 39 38 40 38
30 31 31 34 36 35 38 39 40 39 40 41 40 40 39 39 34 40 39 40 41 41
31 32 31 32 35 36 37 37 39 39 42 41 40 40 41 39 40 38 40 39 39 42
34 31 33 32 36 38 39 39 39 39 38 41 40 41 42 42 41 39 39 40 41 40
34 36 34 33 34 35 37 38 37 37 39 39 40 42 42 41 40 40 39 40 44 46
31 32 35 35 34 36 36 35 36 39 40 40 41 44 46 44 41 41 41 42 42 43
23 25 28 27 31 34 36 36 37 38 38 40 44 44 45 47 47 39 41 42 42 41
9 22 29 30 35 37 34 37 37 39 40 39 42 44 48 48 48 47 46 44 42 41
15 13 11 25 31 33 32 34 37 37 36 38 40 41 44 46 49 44 45 45 44 43
15 13 12 10 11 26 30 34 32 33 34 38 39 38 43 46 45 41 42 43 46 49
18 14 15 11 10 11 10 24 27 28 24 19 17 25 27 39 48 39 35 34 36 30

GFSNIL_925_spd_093.txt.gz
Wind_Speed
24 25 24 26 24 24 24 23 28 30 30 30 35 35 37 37 38 40 38 41 43 40
27 27 26 25 27 27 26 27 28 31 33 32 34 39 37 39 33 36 30 30 34 32
30 28 27 27 27 28 27 27 32 34 33 36 36 33 35 32 36 35 33 31 29 30
31 31 29 29 31 30 30 30 31 36 38 37 36 35 36 33 37 36 36 34 32 34
30 30 29 29 30 32 32 32 35 35 39 38 35 38 37 35 35 40 39 41 38 39
25 28 28 28 29 29 31 33 35 37 38 37 37 37 39 40 39 38 40 40 42 41
24 29 30 30 29 29 30 32 34 36 37 38 38 40 41 40 39 38 40 43 45 44
21 21 25 26 30 30 30 31 32 34 36 37 40 42 40 39 38 38 37 42 42 41
20 23 23 25 28 30 32 34 36 36 36 38 39 40 43 41 38 38 39 39 41 44
18 23 26 27 27 26 27 30 34 35 37 40 42 40 42 45 45 37 38 40 40 38
11 8 8 22 28 28 27 30 30 32 35 36 40 40 43 45 47 44 43 42 43 42
14 12 11 10 9 22 29 31 33 32 29 30 34 36 42 43 47 44 45 45 45 44
15 14 14 14 13 14 13 17 27 30 29 25 27 21 25 39 41 38 40 43 44 46
16 14 16 15 15 17 15 10 4 11 8 6 6 5 12 15 22 30 27 29 24 21

GFSNIL_925_spd_099.txt.gz
Wind_Speed
20 17 14 14 13 12 14 14 18 18 26 29 31 31 35 38 43 35 34 34 32 29
21 18 15 14 12 12 13 12 13 18 24 24 26 32 33 34 31 33 35 35 30 34
20 18 16 14 15 14 15 12 12 13 15 18 24 27 28 26 30 30 29 30 35 37
19 19 18 16 16 16 16 16 15 15 15 17 21 23 26 26 25 28 29 31 25 29
18 17 18 17 17 18 18 19 17 19 20 18 20 22 20 22 24 27 28 29 24 29
15 16 16 17 19 19 18 19 19 17 23 24 23 25 25 27 25 28 28 29 33 35
14 14 16 15 17 19 19 19 20 20 21 22 24 27 28 30 29 27 28 28 30 34
11 11 12 14 16 18 18 18 19 19 19 19 21 22 23 27 31 32 32 28 28 30
11 12 12 13 13 14 17 17 17 19 20 20 22 25 28 26 25 29 29 29 30 31
12 7 1 12 14 17 17 16 17 17 17 19 20 25 27 30 29 26 29 30 31 31
13 12 10 9 9 4 3 15 21 22 22 22 10 23 30 30 31 33 31 30 31 31
17 16 14 13 11 8 6 5 8 7 6 8 3 5 16 27 30 31 33 32 25 24
17 16 15 14 14 12 11 12 13 18 18 14 13 12 7 3 9 20 14 10 8 10
17 17 16 14 15 15 16 19 21 21 20 22 22 20 16 9 7 7 11 12 16 18

GFSNIL_925_spd_102.txt.gz
Wind_Speed
24 19 16 16 14 14 13 14 14 20 24 23 31 31 32 34 36 34 31 31 31 29
23 19 17 15 14 12 12 10 12 15 23 26 26 25 26 28 32 32 37 33 33 29
23 20 17 16 15 15 13 11 11 15 15 19 27 25 23 25 29 31 31 29 28 31
22 20 18 16 16 15 15 13 12 12 12 17 21 24 26 25 25 27 25 27 27 26
22 20 18 16 16 16 16 15 14 13 12 13 14 16 18 19 19 23 24 24 25 29
19 19 17 16 16 16 16 16 15 14 15 16 16 17 17 18 18 20 24 25 27 25
17 16 15 15 15 15 15 15 17 16 15 17 16 16 16 17 18 19 20 22 24 27
13 13 13 12 13 13 14 14 15 16 16 16 17 18 20 21 21 22 22 24 26 27
13 12 12 11 11 11 12 13 14 15 16 16 16 19 24 22 22 24 27 27 29 31
15 12 10 8 8 9 11 12 13 13 14 13 13 17 21 27 25 22 24 25 26 27
14 15 17 14 10 7 3 5 7 8 11 10 9 17 19 22 27 30 23 17 16 18
17 20 19 16 13 11 9 11 12 10 11 8 5 3 10 15 17 26 21 11 12 14
20 21 19 16 15 15 15 16 17 20 18 15 14 11 5 4 5 7 10 6 3 8
18 15 19 17 16 16 17 19 21 22 22 23 20 21 15 7 6 12 14 16 18 17

GFSNIL_925_spd_105.txt.gz
Wind_Speed
29 25 22 21 19 18 19 19 18 20 21 23 31 28 31 32 36 31 31 29 28 26
27 25 22 21 17 17 15 18 19 18 21 25 26 29 31 31 31 34 32 33 30 28
26 25 21 20 19 16 15 16 17 16 16 18 24 27 27 26 28 29 30 29 26 27
24 23 21 19 19 17 18 16 15 16 13 22 23 23 24 23 24 27 26 29 28 27
21 23 22 20 19 18 20 17 15 15 15 15 17 21 23 23 24 24 25 27 28 27
20 20 19 19 19 19 18 18 16 15 16 15 15 16 19 21 20 21 21 20 25 25
17 18 18 18 18 20 18 17 16 15 14 14 14 15 16 16 18 18 18 19 20 22
15 16 15 15 17 17 17 16 15 14 12 13 14 13 16 17 18 16 18 21 20 21
14 12 11 12 13 14 14 14 14 13 13 12 11 13 16 14 13 14 14 14 15 17
18 15 11 10 12 12 12 12 8 8 11 10 8 12 15 19 17 12 15 15 18 20
21 20 16 15 14 11 11 16 13 8 10 8 2 7 12 14 17 20 17 15 11 6
22 23 23 22 18 14 17 17 15 12 11 8 9 5 9 14 14 9 6 1 4 6
20 27 26 22 23 21 24 21 22 22 19 18 16 13 4 1 6 12 11 9 10 14
21 25 22 22 29 25 24 25 26 28 28 26 23 24 18 12 14 17 18 18 19 18

GFSNIL_925_spd_108.txt.gz
Wind_Speed
28 29 24 28 25 24 25 24 26 24 25 31 28 27 28 29 28 28 28 30 29 25
29 27 24 27 24 24 27 26 23 23 24 29 30 29 30 29 29 29 32 33 31 29
28 27 24 27 24 22 26 25 24 25 22 25 28 31 30 28 27 29 27 29 30 31
26 28 22 24 21 20 24 23 21 21 19 22 27 29 30 28 27 28 28 28 28 29
20 23 20 21 19 20 19 18 19 19 20 18 22 28 27 27 26 25 25 25 26 26
20 19 22 22 19 22 21 20 18 19 18 18 21 24 24 26 25 25 26 27 27 27
13 18 22 22 23 20 20 20 20 18 19 18 17 17 20 23 21 21 21 22 22 24
11 17 19 15 22 20 18 20 19 16 19 16 15 14 15 16 16 17 17 17 18 18
9 12 13 21 23 20 20 18 18 17 16 16 15 16 17 17 18 18 17 19 20 20
26 20 14 16 20 19 16 17 17 16 16 16 11 15 18 18 12 8 15 13 10 11
31 28 24 15 18 17 16 16 15 14 13 12 7 9 13 14 13 10 7 4 3 4
32 28 29 27 18 17 21 20 19 16 14 13 13 5 6 10 12 11 9 6 3 5
30 30 31 30 22 22 29 28 26 27 25 23 23 14 6 8 14 17 16 15 16 15
23 26 28 29 24 19 32 28 29 34 33 32 29 26 17 14 17 20 23 22 22 21

GFSNIL_925_spd_111.txt.gz
Wind_Speed
35 33 34 34 32 33 31 28 33 33 30 29 25 23 25 26 26 29 28 29 30 28
35 34 31 35 35 35 33 32 31 33 31 27 26 24 26 26 29 28 32 30 33 29
38 39 35 32 35 34 33 32 30 32 33 30 28 28 28 29 27 29 30 29 33 31
34 36 33 29 36 33 32 32 30 31 31 31 30 29 30 27 28 31 27 28 30 32
31 30 32 28 29 29 31 31 30 28 25 24 27 29 30 30 27 27 27 27 27 25
14 26 26 29 26 28 30 27 24 24 24 22 26 29 31 29 28 27 26 25 25 26
9 5 25 28 29 28 25 24 20 19 21 22 21 24 26 26 27 25 25 24 24 25
17 4 19 25 28 26 23 19 18 18 18 19 19 19 22 25 25 24 21 21 22 23
27 22 9 25 28 27 24 22 21 17 18 17 15 17 18 19 21 20 19 19 19 18
34 32 30 21 18 17 20 23 20 22 21 17 13 17 18 18 18 18 17 18 19 18
34 33 33 31 28 18 18 17 19 17 18 15 9 16 20 21 16 19 15 12 12 14
36 34 32 33 33 28 27 26 21 16 15 12 8 2 13 23 21 16 12 8 7 8
36 33 30 29 33 36 28 37 28 32 26 24 20 10 10 17 20 20 18 14 12 7
31 29 25 27 33 31 26 37 31 35 32 34 30 23 14 14 21 23 23 21 20 18

GFSNIL_925_spd_114.txt.gz
Wind_Speed
32 37 37 36 30 33 34 35 38 34 35 34 31 26 25 25 24 26 27 27 26 28
31 34 34 37 36 34 34 35 38 38 35 32 30 27 26 26 26 27 27 26 27 29
36 39 38 37 36 35 34 32 34 35 36 33 33 29 28 26 26 25 27 27 28 25
29 30 38 39 38 38 35 34 32 35 34 33 31 29 29 28 27 26 28 29 30 31
10 23 32 33 37 36 36 35 33 34 33 31 28 32 30 30 29 30 27 29 29 30
17 2 16 31 33 32 33 33 32 31 30 27 28 29 30 30 31 31 31 31 29 29
27 17 4 20 28 31 32 33 33 29 27 26 25 25 29 30 30 29 28 27 29 28
30 22 10 9 24 29 31 33 31 28 25 22 21 21 27 27 27 25 25 25 26 25
30 31 21 15 2 23 31 30 27 25 23 22 20 23 23 22 21 23 25 25 25 22
34 30 32 25 23 17 12 16 19 19 19 20 18 21 21 19 20 23 22 20 19 19
31 30 27 27 33 29 25 21 19 16 13 9 5 15 21 20 20 19 16 15 17 18
33 31 30 30 33 35 36 34 30 27 20 13 11 1 13 23 22 20 15 11 11 14
29 30 26 25 27 33 39 31 35 32 32 28 20 13 9 18 21 23 19 14 10 6
29 29 25 25 29 29 30 30 26 31 34 34 29 26 15 13 17 18 21 19 18 15

GFSNIL_925_spd_117.txt.gz
Wind_Speed
18 25 33 35 35 35 33 39 39 36 38 38 36 34 33 32 30 28 27 27 27 27
18 24 33 35 34 34 34 35 39 39 39 39 36 33 33 29 25 26 26 25 28 29
25 23 34 34 37 38 37 36 38 37 36 35 36 33 32 28 26 25 25 26 27 29
25 17 28 30 36 38 34 37 38 38 34 33 35 34 33 28 26 26 25 25 27 27
27 18 19 29 34 31 33 36 38 36 33 32 31 33 32 29 28 27 27 27 26 27
31 28 18 10 24 30 32 34 33 33 32 31 32 32 29 32 30 30 29 29 28 28
32 31 25 15 11 25 30 30 32 32 32 28 29 30 29 30 29 29 29 31 31 30
31 32 29 22 15 7 22 29 32 31 31 31 30 30 29 27 28 28 28 30 31 31
35 35 33 33 24 18 14 4 24 27 27 27 26 25 25 24 26 28 28 26 28 28
35 34 34 32 35 34 28 20 15 15 15 14 11 21 22 22 25 27 26 26 24 24
36 32 33 35 31 33 34 32 31 25 16 10 6 12 21 21 22 22 20 20 20 20
33 34 34 34 33 29 30 37 35 28 31 24 21 11 7 17 16 16 14 12 11 14
32 30 31 31 31 30 28 30 31 33 35 34 28 22 13 5 14 16 13 10 7 5
32 30 29 27 28 27 30 29 25 30 34 34 33 29 22 16 14 19 22 23 22 17

GFSNIL_925_spd_120.txt.gz
Wind_Speed
10 14 16 25 26 29 33 32 25 35 40 36 37 36 34 35 33 34 32 30 28 26
15 15 20 25 23 27 34 35 33 40 34 34 34 36 37 36 36 35 32 30 26 26
20 18 21 26 26 31 34 34 37 39 37 35 34 35 37 36 35 34 31 26 25 26
27 24 19 16 24 26 30 32 37 35 33 36 34 37 36 36 35 34 30 28 26 25
30 30 26 18 14 23 26 30 35 35 31 30 35 35 36 36 35 35 32 28 27 26
33 32 31 28 20 11 22 26 28 29 28 29 34 35 35 36 36 35 33 29 28 27
34 34 32 31 26 19 9 16 23 25 26 27 30 33 33 32 33 32 32 31 28 28
31 32 33 32 34 28 21 14 7 20 25 25 28 30 30 31 29 29 30 30 27 28
34 34 34 34 34 33 33 28 20 15 12 0 14 25 30 28 29 29 28 26 28 28
32 32 34 34 34 37 35 34 33 30 23 20 21 6 25 28 27 26 26 27 26 27
32 31 31 35 36 35 33 34 32 36 32 32 32 24 6 15 21 21 19 19 21 25
31 31 32 32 30 33 33 34 34 35 37 34 35 34 23 5 9 12 9 6 6 11
33 33 31 29 31 29 29 29 32 34 37 38 41 34 26 20 17 19 15 13 9 5
27 27 29 28 30 31 30 30 31 32 37 40 40 40 35 27 24 23 23 24 25 20

GFSNIL_925_spd_123.txt.gz
Wind_Speed
11 9 9 11 12 19 26 29 26 35 36 37 40 33 34 33 32 31 31 29 28 24
13 13 14 17 20 16 25 25 25 32 34 36 33 32 35 34 35 33 33 32 33 29
22 19 17 16 17 21 22 26 22 26 26 25 26 31 31 33 33 32 32 32 32 31
21 19 18 16 16 15 18 24 26 25 24 24 25 28 33 33 32 33 32 34 33 31
29 29 27 26 23 19 11 18 22 24 24 24 24 27 33 33 31 33 33 34 30 30
31 29 29 30 30 26 20 10 13 19 22 26 27 29 34 36 35 36 35 34 33 31
32 32 32 31 32 32 30 25 16 9 14 22 22 27 30 31 32 34 34 35 37 31
32 31 33 35 35 33 35 32 29 24 18 12 6 7 13 23 32 30 30 33 33 28
31 33 33 34 35 34 36 35 37 35 32 31 28 25 12 18 25 34 32 30 31 27
32 33 35 34 33 34 33 34 36 36 34 34 39 32 19 15 19 20 30 30 25 25
32 31 32 32 32 33 33 33 34 35 36 34 44 37 28 16 4 8 5 7 8 15
30 31 32 32 31 30 29 29 30 33 37 37 42 40 34 27 24 23 23 19 17 4
28 31 30 29 29 27 27 27 27 30 33 33 35 43 38 31 27 27 25 26 27 26
31 29 30 28 29 28 27 27 28 27 30 34 36 36 38 38 36 30 27 31 27 29

GFSNIL_925_spd_126.txt.gz
Wind_Speed
14 10 7 5 2 7 5 15 20 24 31 33 34 34 31 29 31 33 34 32 31 28
18 16 12 10 7 7 9 13 17 24 27 32 31 32 31 31 32 30 33 33 29 30
21 19 16 13 11 14 13 13 21 22 23 27 30 32 31 32 30 30 32 31 28 30
24 22 18 21 23 21 17 15 17 24 24 23 27 30 30 29 28 30 32 30 29 31
34 33 30 32 29 25 22 16 12 10 19 24 26 23 25 28 27 29 30 30 30 31
36 31 34 33 31 28 26 24 22 16 13 11 14 21 23 28 28 29 32 31 31 32
30 28 27 27 30 32 33 32 31 29 26 21 19 18 11 10 18 27 28 29 30 32
25 27 29 30 28 30 33 34 34 33 34 34 33 31 22 16 17 17 26 29 31 33
27 28 27 28 29 29 30 32 33 34 33 37 39 36 27 16 15 18 19 26 29 33
27 27 28 28 28 29 30 30 31 33 33 35 43 42 32 29 16 13 13 10 6 14
27 27 28 28 28 28 28 29 30 32 34 33 42 47 34 30 30 28 25 26 21 12
31 29 29 30 28 27 27 28 30 31 33 36 35 46 44 34 31 28 26 27 30 26
26 28 28 28 28 25 26 27 24 27 32 30 34 39 41 36 30 28 28 29 33 34
27 26 26 25 27 27 25 25 26 25 27 32 33 35 34 34 31 26 23 27 31 30